Вернуться в каталог

STARLINK-34564

АктивенСвязьSSO
NORAD 64852·PAYLOAD·🇺🇸 United States

Запущен Jul 19, 2025 с Vandenberg Space Force Base

Loading…

Ближайшие Пролёты (ближайшие 24 часа)

TLE

СвежийSource: CelesTrak SupGP

Эпоха: Sep 15, 2026, 02:52 UTC

1 64852C 25152L   26258.11993056 -.00077478  00000+0 -24049-2 0  2580
2 64852  97.2844 108.8134 0001832  94.0880 258.1090 15.33480187    15

Отслеживайте STARLINK-34564 в реальном времени с AllMySat

Download on the App Store